loading
|

THOR ABLESTAR DEB, 405

Orbit data source: Space-Track

THOR ABLESTAR DEB, 405 is space debris in LEO originally from a launch on Thu, 29 Jun 1961 UTC launched from the Air Force Eastern Test Range (AFETR). Debris objects in space refer to the collection of defunct objects orbiting the Earth. Examples of debris include non-operational satellites, rocket bodies, and fragments generated from explosions, collisions, or faulty payload assembly.

Loading next visibility...
Loading greatness...
THOR ABLESTAR DEB details
Identifier
405, 1961-015EE
Orbit
LEO
Last TLE update12 hours ago
Origin
Flag of USUSAF SSD (US)
ManufacturerUnknown
Mission statusUnknown
MissionUnknown
Bus & MotorUnknown
MassUnknown
Launch date (UTC)
1961-06-29 (63 years ago)
Launch vehicleUnknown
Launch site
Air Force Eastern Test Range (AFETR)
Object type
Payload
Rocket body
Debris
Radar Cross SectionSmall (<0.1 m²)

Expand to show TLE details & history

TLE from 12 hours ago
0 THOR ABLESTAR DEB
1   405U 61015EE  24251.22519053  .00000562  00000-0  74280-3 0  9990
2   405  66.8908 235.5130 0092573 264.8963 186.7106 13.66341530144078
Epoch: 2024-09-07T05:24Z
Definitive object data (Epoch: 2024-09-07T05:24:16.461Z)
Latitude66.95176°
Longitude-98.56045°
Altitude1,091.454 km
Speed7.279 km/s
True Right ascension21h 57m 10s
True Declination66° 49' 59"
Sunlit
Object was in daylight at TLE epoch
Predictive object data (real-time)
Latitude58.94014°
Longitude-148.70608°
Altitude1,087.58 km
Speed7.282 km/s
Apparent Right ascension20h 22m 01s
Apparent Declination15° 57' 29"
Sunlit
Object is in daylight
Predictive observer data (real-time)
Local Sidereal Time09:43:55
Azimuth23.092° NE
Elevation-30.959°
Doppler factor1
Orbital elements
Apogee1,079.541 km
Perigee942.732 km
Semi-major axis7,389.274 km
Eccentricity0.0092573
Inclination66.8908°
RAAN235.513°
Arg. of periapsis264.8963°
True anomaly186.58805°
Mean anomaly186.7106°
Eccentric anomaly186.64918°
Mean motion3.41697 °/min
BSTAR0.0007428
Period105.36 mins
No data available

THOR ABLESTAR DEB Visibility forecast

Observer location: 39.9160978°, -105.1181434

THOR ABLESTAR DEB is not visible in the next 10 days
Span
Click to sort rows by Start time (UTC) header in descending order
Start Az.
Max El. time (UTC)
Max El. Az.
Max El.
End time (UTC)
End Az.